Date,TemperatureHighF,TemperatureAvgF,TemperatureLowF,DewpointHighF,DewpointAvgF,DewpointLowF,HumidityHigh,HumidityAvg,HumidityLow,PressureMaxIn,PressureMinIn,WindSpeedMaxMPH,WindSpeedAvgMPH,GustSpeedMaxMPH,PrecipitationSumIn
2013-4-1,70,39,20,24,11,-100,78,39,15,29.06,28.88,12,4,23,0.00
2013-4-2,71,43,20,26,9,-100,67,31,14,29.03,28.82,18,6,28,0.00
2013-4-3,74,50,32,24,13,-100,54,26,14,29.00,28.82,16,8,22,0.00
2013-4-4,84,51,27,29,18,-100,80,36,13,29.03,28.76,24,7,34,0.09
2013-4-5,85,51,37,39,19,-100,82,37,13,28.82,28.53,24,8,34,0.04
2013-4-6,73,49,35,36,18,-100,80,37,16,28.82,28.70,13,5,17,0.00
2013-4-7,74,49,29,40,23,-100,83,46,15,28.76,28.53,15,-28,23,0.00
2013-4-8,38,24,13,38,19,-100,100,80,63,29.06,28.56,23,12,27,0.00
2013-4-9,24,14,9,9,2,-100,81,62,38,29.15,29.03,19,11,24,0.00
2013-4-10,58,24,10,17,4,-100,76,46,17,29.09,28.76,8,4,11,0.04
2013-4-11,16,14,10,9,3,-100,77,64,60,28.79,28.67,8,4,11,0.00
2013-4-12,30,28,26,22,18,-100,80,70,63,28.79,28.76,10,5,13,0.00
2013-4-13,61,40,26,32,23,-100,97,57,21,28.76,28.26,39,-40,46,0.00
2013-4-14,46,29,17,31,16,-100,93,64,30,28.79,28.41,26,-260,35,0.00
2013-4-15,32,22,14,11,5,-100,80,51,34,28.97,28.73,13,7,18,0.00
2013-4-16,32,22,15,17,11,-100,82,67,43,29.09,28.91,13,-15,16,0.00
2013-4-17,33,24,18,16,12,-100,83,62,38,29.06,29.00,15,4,19,0.00
2013-4-18,52,29,9,21,7,-100,80,47,21,29.03,28.88,16,6,22,0.00
2013-4-19,58,41,27,31,17,-100,84,45,22,28.88,28.67,15,-1,20,0.00
2013-4-20,68,45,30,33,24,-100,88,53,18,28.76,28.64,14,3,20,0.00
2013-4-21,60,36,27,40,28,-100,99,75,30,28.91,28.76,17,7,24,0.00
2013-4-22,41,26,8,26,10,-100,99,58,23,29.21,28.88,17,-12,23,0.00
2013-4-23,60,28,1,26,3,-100,77,38,17,29.21,28.94,11,-34,15,0.00
2013-4-24,27,25,24,16,10,-100,62,54,49,29.00,28.97,9,-21,10,0.00
2013-4-30,32,30,28,16,15,13,52,49,45,28.97,28.88,14,10,17,0.00